EW8073 Weather Reports


time (UTC)temp
C
wind
direction
speed
KPH
gust
KPH
rain 1hr
cm
rain 24hr
cm
rain mn
cm
humidity
%
barometer
mb
20260505090546 8 80 0.0 4.8 0.00 0.00 0.00 86 1009.9
20260505090045 8 80 0.0 6.4 0.00 0.00 0.00 86 1010.1
20260505085545 8 84 0.0 6.4 0.00 0.00 0.00 86 1010.1
20260505085045 8 89 0.0 6.4 0.00 0.00 0.00 86 1010.2
20260505084544 8 80 0.0 4.8 0.00 0.00 0.00 86 1010.2
20260505083544 8 269 0.0 1.6 0.00 0.00 0.00 86 1010.2
20260505083042 9 268 0.0 0.0 0.00 0.00 0.00 86 1010.2
20260505082543 9 268 0.0 0.0 0.00 0.00 0.00 86 1010.2
20260505082038 9 268 0.0 0.0 0.00 0.00 0.00 86 1010.2
20260505081539 9 268 0.0 0.0 0.00 0.00 0.00 86 1010.3
20260505081038 9 268 0.0 0.0 0.00 0.00 0.00 86 1010.4
20260505080538 9 268 0.0 1.6 0.00 0.00 0.00 86 1010.3
20260505075539 9 268 0.0 0.0 0.00 0.00 0.00 86 1010.4
20260505075038 9 268 0.0 1.6 0.00 0.00 0.00 86 1010.4
20260505074539 9 268 0.0 1.6 0.00 0.00 0.00 86 1010.4
20260505074039 9 267 0.0 0.0 0.00 0.00 0.00 86 1010.4
20260505073538 9 267 0.0 0.0 0.00 0.00 0.00 86 1010.4
20260505073038 9 267 0.0 0.0 0.00 0.00 0.00 86 1010.3
20260505072039 9 267 0.0 0.0 0.00 0.00 0.00 85 1010.4
20260505071538 9 267 0.0 0.0 0.00 0.00 0.00 85 1010.3
20260505071038 9 267 0.0 0.0 0.00 0.00 0.00 85 1010.3
20260505070038 9 267 0.0 0.0 0.00 0.00 0.00 86 1010.3
20260505065538 9 267 0.0 0.0 0.00 0.00 0.00 86 1010.3
20260505065039 9 267 0.0 0.0 0.00 0.00 0.00 86 1010.3
20260505064539 9 267 0.0 0.0 0.00 0.00 0.00 86 1010.4
20260505064041 9 267 0.0 0.0 0.00 0.00 0.00 86 1010.3
20260505063036 9 267 0.0 0.0 0.00 0.00 0.00 85 1010.4
20260505062535 9 267 0.0 0.0 0.00 0.00 0.00 85 1010.4
20260505062034 9 267 0.0 0.0 0.00 0.00 0.00 85 1010.4
20260505061534 9 267 0.0 0.0 0.00 0.00 0.00 85 1010.6
20260505061034 9 267 0.0 0.0 0.00 0.00 0.00 85 1010.8
20260505060534 9 267 0.0 0.0 0.00 0.00 0.00 85 1010.6
20260505060030 9 267 0.0 0.0 0.00 0.00 0.00 85 1010.6
20260505055532 9 267 0.0 0.0 0.00 0.00 0.00 85 1010.5
20260505055029 9 267 0.0 0.0 0.00 0.00 0.00 85 1010.5
20260505054531 9 267 0.0 0.0 0.00 0.00 0.00 85 1010.3
20260505054025 10 267 0.0 0.0 0.00 0.00 0.00 84 1010.2
20260505053519 10 267 0.0 0.0 0.00 0.00 0.00 84 1010.2
20260505052509 10 267 0.0 0.0 0.00 0.00 0.00 84 1010.2
20260505052003 10 267 0.0 0.0 0.00 0.00 0.00 84 1010.3
20260505051456 10 267 0.0 0.0 0.00 0.00 0.00 83 1010.5
20260505050950 10 269 0.0 0.0 0.00 0.00 0.00 83 1010.5
20260505050443 10 270 0.0 0.0 0.00 0.00 0.00 83 1010.3
20260505041347 10 275 0.0 0.0 0.00 0.00 0.00 78 1010.8
20260505040846 10 276 0.0 0.0 0.00 0.00 0.00 78 1010.6
20260505040346 11 277 0.0 0.0 0.00 0.00 0.00 77 1010.6
20260505035846 11 277 0.0 0.0 0.00 0.00 0.00 76 1010.5
20260505035344 11 279 0.0 0.0 0.00 0.00 0.00 75 1010.5
20260505034845 11 279 0.0 0.0 0.00 0.00 0.00 74 1010.5
20260505034342 11 280 0.0 1.6 0.00 0.00 0.00 73 1010.5
20260505033843 11 271 0.0 1.6 0.00 0.00 0.00 72 1010.6
20260505033343 11 0 0.0 0.0 0.00 0.00 0.00 71 1010.5
20260505032843 12 0 0.0 0.0 0.00 0.00 0.00 69 1010.4
20260505031839 12 0 0.0 0.0 0.00 0.00 0.00 66 1010.1
20260505030338 12 87 0.0 0.0 0.00 0.00 0.00 63 1009.7
20260505025839 12 92 0.0 0.0 0.00 0.00 0.00 63 1009.6
20260505025339 12 92 0.0 0.0 0.00 0.00 0.00 63 1009.4
20260505024339 12 71 0.0 0.0 0.00 0.00 0.00 61 1009.4
20260505023839 12 345 0.0 0.0 0.00 0.00 0.00 61 1009.4
20260505022839 13 344 0.0 6.4 0.00 0.00 0.00 60 1009.4
20260505021839 13 344 1.6 8.0 0.00 0.00 0.00 60 1009.1
20260505021338 13 344 1.6 8.0 0.00 0.00 0.00 59 1009.2
20260505020838 13 329 0.0 6.4 0.00 0.00 0.00 57 1009.1
20260505020339 13 346 0.0 1.6 0.00 0.00 0.00 55 1009.2
20260505015839 14 348 0.0 0.0 0.00 0.00 0.00 53 1009.1
20260505015338 14 0 0.0 0.0 0.00 0.00 0.00 52 1009.1
20260505014831 14 348 0.0 1.6 0.00 0.00 0.00 52 1008.9
20260505014325 14 0 0.0 1.6 0.00 0.00 0.00 52 1008.8
20260505013820 14 24 0.0 1.6 0.00 0.00 0.00 51 1008.7
20260505013314 14 0 0.0 0.0 0.00 0.00 0.00 52 1008.7
20260505012808 15 0 0.0 0.0 0.00 0.00 0.00 51 1008.8
20260505012301 15 0 0.0 0.0 0.00 0.00 0.00 51 1008.8
20260505011756 15 285 0.0 0.0 0.00 0.00 0.00 51 1008.7
20260505011250 15 0 0.0 0.0 0.00 0.00 0.00 52 1008.8
20260505010744 15 0 0.0 0.0 0.00 0.00 0.00 52 1008.5
20260505010238 15 0 0.0 0.0 0.00 0.00 0.00 51 1008.5
20260505005731 15 0 0.0 0.0 0.00 0.00 0.00 48 1008.5
20260505004720 15 0 0.0 0.0 0.00 0.00 0.00 47 1008.5
20260505004214 15 0 0.0 1.6 0.00 0.00 0.00 45 1008.4
20260505003709 16 0 0.0 1.6 0.00 0.00 0.00 45 1008.3
20260505003203 16 319 0.0 1.6 0.00 0.00 0.00 44 1008.2
20260505002657 16 11 0.0 1.6 0.00 0.00 0.00 42 1008.2
20260505002149 16 340 0.0 0.0 0.00 0.00 0.00 39 1008.1
20260505001644 16 340 0.0 0.0 0.00 0.00 0.00 39 1008.1
20260505001137 16 325 0.0 0.0 0.00 0.00 0.00 39 1008.0
20260505000631 16 321 0.0 0.0 0.00 0.00 0.00 39 1007.8
20260505000125 16 321 0.0 1.6 0.00 0.00 0.00 39 1007.8
20260504235620 17 318 0.0 1.6 0.00 0.00 0.00 39 1007.7
20260504234605 17 285 0.0 0.0 0.00 0.00 0.00 39 1007.6
20260504233047 17 355 0.0 6.4 0.00 0.00 0.00 38 1007.7
20260504232037 17 298 1.6 16.1 0.00 0.00 0.00 38 1007.7
20260504231530 18 294 1.6 12.9 0.00 0.00 0.00 37 1007.7
20260504231023 18 305 1.6 14.5 0.00 0.00 0.00 33 1007.5
20260504230518 18 68 1.6 14.5 0.00 0.00 0.00 32 1007.4
20260504230012 18 5 0.0 6.4 0.00 0.00 0.00 31 1007.4
20260504225507 18 33 0.0 1.6 0.00 0.00 0.00 30 1007.5
20260504225001 18 345 0.0 1.6 0.00 0.00 0.00 30 1007.3
20260504224455 18 332 0.0 3.2 0.00 0.00 0.00 30 1007.1
20260504223947 19 346 0.0 3.2 0.00 0.00 0.00 30 1007.1
20260504223442 19 296 0.0 1.6 0.00 0.00 0.00 30 1007.0
20260504222936 19 55 0.0 1.6 0.00 0.00 0.00 29 1007.0
20260504222430 20 344 0.0 3.2 0.00 0.00 0.00 29 1007.0
20260504221924 20 75 1.6 12.9 0.00 0.00 0.00 28 1006.7
20260504221418 20 60 1.6 12.9 0.00 0.00 0.00 28 1006.6
20260504220911 20 259 0.0 6.4 0.00 0.00 0.00 28 1006.4
20260504220405 21 60 1.6 16.1 0.00 0.00 0.00 27 1006.3
20260504215859 21 327 3.2 16.1 0.00 0.00 0.00 28 1006.1
20260504214849 20 14 4.8 17.7 0.00 0.00 0.00 29 1006.1
20260504214346 20 42 3.2 17.7 0.00 0.00 0.00 30 1006.2
20260504212846 19 328 1.6 27.4 0.00 0.00 0.00 28 1006.4
20260504212344 20 321 0.0 9.7 0.00 0.00 0.00 27 1006.6
20260504211843 20 130 0.0 8.0 0.00 0.00 0.00 25 1006.7
20260504211340 20 340 0.0 3.2 0.00 0.00 0.00 25 1006.6
20260504210838 20 73 0.0 3.2 0.00 0.00 0.00 24 1006.7
20260504210338 20 127 0.0 3.2 0.00 0.00 0.00 25 1006.8
20260504205840 20 126 0.0 3.2 0.00 0.00 0.00 24 1006.8
20260504205335 20 215 1.6 9.7 0.00 0.00 0.00 24 1006.9
20260504204834 20 215 1.6 16.1 0.00 0.00 0.00 25 1007.0
20260504204331 20 327 0.0 16.1 0.00 0.00 0.00 24 1007.3
20260504203331 20 294 1.6 20.9 0.00 0.00 0.00 24 1006.9
20260504202833 20 251 1.6 20.9 0.00 0.00 0.00 24 1006.7
20260504202331 20 258 3.2 22.5 0.00 0.00 0.00 23 1006.4
20260504201330 21 252 1.6 16.1 0.00 0.00 0.00 23 1006.6
20260504200830 21 189 0.0 6.4 0.00 0.00 0.00 21 1006.4
20260504195817 21 227 4.8 29.0 0.00 0.00 0.00 20 1006.3
20260504195310 22 254 1.6 29.0 0.00 0.00 0.00 20 1006.3
20260504194805 23 246 0.0 6.4 0.00 0.00 0.00 19 1006.4
20260504194258 23 227 0.0 1.6 0.00 0.00 0.00 17 1006.6
20260504193752 23 325 0.0 0.0 0.00 0.00 0.00 16 1006.4
20260504193246 23 325 0.0 0.0 0.00 0.00 0.00 17 1006.3
20260504192233 23 259 0.0 4.8 0.00 0.00 0.00 17 1006.3
20260504191728 23 285 0.0 4.8 0.00 0.00 0.00 16 1006.3
20260504191222 23 306 0.0 1.6 0.00 0.00 0.00 16 1006.3
20260504190716 24 263 0.0 1.6 0.00 0.00 0.00 17 1006.2
20260504190211 23 244 0.0 1.6 0.00 0.00 0.00 17 1006.3
20260504185712 23 271 0.0 1.6 0.00 0.00 0.00 17 1006.3
20260504184710 22 245 0.0 3.2 0.00 0.00 0.00 18 1006.3
20260504184209 22 344 0.0 9.7 0.00 0.00 0.00 18 1006.3
20260504183710 22 355 1.6 12.9 0.00 0.00 0.00 19 1006.4
20260504183207 22 19 3.2 12.9 0.00 0.00 0.00 19 1006.4
20260504182708 22 319 3.2 14.5 0.00 0.00 0.00 19 1006.6
20260504181209 23 9 1.6 12.9 0.00 0.00 0.00 20 1006.6
20260504180708 23 292 3.2 14.5 0.00 0.00 0.00 21 1006.8
20260504180208 23 277 3.2 14.5 0.00 0.00 0.00 20 1006.8
20260504175704 23 0 3.2 14.5 0.00 0.00 0.00 21 1006.8
20260504175204 23 221 1.6 14.5 0.00 0.00 0.00 21 1006.9
20260504174204 22 283 4.8 14.5 0.00 0.00 0.00 22 1007.1
20260504173703 22 355 3.2 14.5 0.00 0.00 0.00 22 1007.3
20260504173203 22 5 0.0 6.4 0.00 0.00 0.00 22 1007.3
20260504172704 22 324 0.0 4.8 0.00 0.00 0.00 22 1007.3
20260504171705 22 127 1.6 11.3 0.00 0.00 0.00 22 1007.4
20260504171204 22 336 3.2 11.3 0.00 0.00 0.00 23 1007.4
20260504170703 22 348 1.6 11.3 0.00 0.00 0.00 23 1007.5
20260504170204 22 355 1.6 11.3 0.00 0.00 0.00 24 1007.5
20260504160122 19 322 0.0 6.4 0.00 0.00 0.00 28 1008.1
20260504151022 16 254 0.0 1.6 0.00 0.00 0.00 31 1008.3
20260504150517 15 262 0.0 1.6 0.00 0.00 0.00 32 1008.3
20260504140911 12 223 0.0 0.0 0.00 0.00 0.00 40 1008.4
20260504140405 12 216 0.0 0.0 0.00 0.00 0.00 43 1008.4
20260504130800 8 343 0.0 0.0 0.00 0.00 0.00 53 1008.5
20260504120140 6 343 0.0 0.0 0.00 0.00 0.00 56 1008.0
20260504110540 6 343 0.0 0.0 0.00 0.00 0.00 55 1008.3
20260504100528 7 343 0.0 0.0 0.00 0.00 0.00 49 1008.7